Time,TemperatureF,DewpointF,PressureIn,WindDirection,WindDirectionDegrees,WindSpeedMPH,WindSpeedGustMPH,Humidity,HourlyPrecipIn,Conditions,Clouds,dailyrainin,SoftwareType,DateUTC
2013-06-27 03:22:00,76.0,-99.9,0.00,WNW,300,0.0,0.0,-999,0.00,,,0.00,,2013-06-27 10:22:00,
2013-06-27 03:43:00,76.0,41.0,29.90,WNW,300,0.0,0.0,28,0.00,,,0.00,,2013-06-27 10:43:00,
2013-06-27 03:54:00,75.0,41.0,29.90,WNW,300,0.0,0.0,29,0.00,,,0.00,,2013-06-27 10:54:00,
2013-06-27 04:01:00,75.0,41.0,29.90,WNW,300,0.0,0.0,29,0.00,,,0.00,,2013-06-27 11:01:00,
2013-06-27 04:11:00,75.0,41.0,29.91,WNW,300,0.0,0.0,29,0.00,,,0.00,,2013-06-27 11:11:00,
2013-06-27 04:21:00,75.0,41.0,29.91,WNW,300,0.0,0.0,29,0.00,,,0.00,,2013-06-27 11:21:00,
2013-06-27 04:33:00,75.0,41.0,29.91,WNW,300,0.0,0.0,29,0.00,,,0.00,,2013-06-27 11:33:00,
2013-06-27 05:01:00,74.0,41.0,29.92,ENE,60,0.0,0.0,31,0.00,,,0.00,,2013-06-27 12:01:00,
2013-06-27 05:11:00,73.0,42.0,29.92,ENE,60,0.0,0.0,33,0.00,,,0.00,,2013-06-27 12:11:00,
2013-06-27 05:22:00,74.0,41.0,29.92,North,6,0.0,0.0,30,0.00,,,0.00,,2013-06-27 12:22:00,
2013-06-27 05:34:00,74.0,41.0,29.92,North,6,0.0,0.0,30,0.00,,,0.00,,2013-06-27 12:34:00,
2013-06-27 06:11:00,74.0,41.0,29.94,North,6,0.0,0.0,30,0.00,,,0.00,,2013-06-27 13:11:00,
2013-06-27 06:33:00,75.0,41.0,29.94,North,6,0.0,0.0,29,0.00,,,0.00,,2013-06-27 13:33:00,
2013-06-27 06:43:00,76.0,43.0,29.95,North,6,0.0,0.0,31,0.00,,,0.00,,2013-06-27 13:43:00,
2013-06-27 06:52:00,76.0,42.0,29.95,SW,219,0.0,0.0,30,0.00,,,0.00,,2013-06-27 13:52:00,
2013-06-27 07:33:00,84.0,41.0,29.96,NNW,336,0.0,0.0,22,0.00,,,0.00,,2013-06-27 14:33:00,
2013-06-27 07:43:00,85.0,42.0,29.97,NW,325,0.0,0.0,22,0.00,,,0.00,,2013-06-27 14:43:00,
2013-06-27 07:52:00,86.0,43.0,29.97,NW,325,0.0,0.0,22,0.00,,,0.00,,2013-06-27 14:52:00,
2013-06-27 09:34:00,-999.0,-99.9,-100.00,North,349,1.0,-999.0,-999,-99.99,,,-99.99,,2013-06-27 16:34:00,
2013-06-27 12:33:00,101.0,50.0,29.96,ENE,68,8.0,8.0,18,0.00,,,0.00,,2013-06-27 19:33:00,
2013-06-27 12:42:00,101.0,48.0,29.96,ENE,72,10.0,10.0,17,0.00,,,0.00,,2013-06-27 19:42:00,
2013-06-27 12:53:00,101.0,48.0,29.96,East,90,12.0,12.0,17,0.00,,,0.00,,2013-06-27 19:53:00,
2013-06-27 13:01:00,102.0,49.0,29.96,ENE,76,5.0,5.0,17,0.00,,,0.00,,2013-06-27 20:01:00,
2013-06-27 13:11:00,102.0,47.0,29.95,East,80,12.0,15.0,16,0.00,,,0.00,,2013-06-27 20:11:00,
2013-06-27 13:33:00,103.0,48.0,29.94,NNE,28,11.0,11.0,16,0.00,,,0.00,,2013-06-27 20:33:00,
2013-06-27 13:52:00,104.0,47.0,29.94,ENE,69,10.0,10.0,15,0.00,,,0.00,,2013-06-27 20:52:00,
2013-06-27 21:11:00,99.0,48.0,29.87,SSW,200,4.0,4.0,18,0.00,,,0.00,,2013-06-28 04:11:00,
2013-06-27 21:22:00,99.0,49.0,29.87,East,96,3.0,3.0,19,0.00,,,0.00,,2013-06-28 04:22:00,
2013-06-27 21:33:00,98.0,49.0,29.87,NNE,24,2.0,2.0,19,0.00,,,0.00,,2013-06-28 04:33:00,
2013-06-27 21:43:00,97.0,49.0,0.03,ENE,77,3.0,-999.0,20,0.00,,,0.00,,2013-06-28 04:43:00,
2013-06-27 21:53:00,96.0,50.0,-100.00,ENE,70,5.0,6.0,21,6.00,,,0.00,,2013-06-28 04:53:00,
2013-06-27 22:01:00,96.0,52.0,29.88,East,80,6.0,6.0,23,0.00,,,0.00,,2013-06-28 05:01:00,
2013-06-27 22:11:00,96.0,53.0,29.88,East,87,7.0,7.0,24,0.00,,,0.00,,2013-06-28 05:11:00,
2013-06-27 22:22:00,95.0,54.0,29.88,East,89,7.0,7.0,25,0.00,,,0.00,,2013-06-28 05:22:00,
2013-06-27 22:33:00,94.0,53.0,29.88,ENE,73,8.0,8.0,25,0.00,,,0.00,,2013-06-28 05:33:00,
2013-06-27 22:43:00,94.0,53.0,29.88,East,83,6.0,7.0,25,0.00,,,0.00,,2013-06-28 05:43:00,
2013-06-27 22:52:00,94.0,53.0,29.88,ENE,70,6.0,6.0,25,0.00,,,0.00,,2013-06-28 05:52:00,
2013-06-27 23:01:00,94.0,52.0,29.88,East,84,6.0,6.0,24,0.00,,,0.00,,2013-06-28 06:01:00,
2013-06-27 23:11:00,94.0,52.0,29.88,East,84,6.0,6.0,24,0.00,,,0.00,,2013-06-28 06:11:00,